SCP
2 2 2 2 2 1 1 1 1 1 0 0 0 0 0 0 0 0 0 0 0 0 0 0 0 0 0 0 0 0 0 0 0 0 0 0 0 0 0 0 0 0 0
2 2 2 2 2 1 1 1 1 0 0 0 0 0 0 0 0 0 0 0 0 0 0 0 0 0 0 0 0 0 0 0 0 0 0 0 0 0 0 0 0 0 0
3 3 3 3 2 1 1 1 0 0 0 0 0 0 0 0 0 0 0 0 0 0 0 0 0 0 0 0 0 0 0 0 0 0 0 0 0 0 0 0 0 0 0
3 4 3 3 2 1 1 1 0 0 0 0 0 0 0 0 0 0 0 0 0 0 0 0 0 0 0 0 0 0 0 0 0 0 0 0 0 0 0 0 0 0 0
4 4 3 3 2 1 1 1 0 0 0 0 0 0 0 0 0 0 0 0 0 0 0 0 0 0 0 0 0 0 0 0 0 0 0 0 0 0 0 0 0 0 0
4 4 3 3 2 1 1 1 0 0 0 0 0 0 0 0 0 0 0 0 0 0 0 0 0 0 0 0 0 0 0 0 0 0 0 0 0 0 0 0 0 0 0
4 3 3 3 2 1 1 1 1 0 0 0 0 0 0 0 0 0 0 0 0 0 0 0 0 0 0 0 0 0 0 0 0 0 0 0 0 0 0 0 0 0 0
4 3 3 2 2 1 1 1 1 0 0 0 0 0 0 0 0 0 0 0 0 0 0 0 0 0 0 0 0 0 0 0 0 0 0 0 0 0 0 0 0 0 0
4 3 3 2 1 1 1 1 1 0 0 0 0 0 0 0 0 0 0 0 0 0 0 0 0 0 0 0 0 0 0 0 0 0 0 0 0 0 0 0 0 0 0
4 3 2 2 1 1 1 1 1 0 0 0 0 0 0 0 0 0 0 0 0 0 0 0 0 0 0 0 0 0 0 0 0 0 0 0 0 0 0 0 0 0 0
3 3 2 2 1 1 1 1 0 0 0 0 0 0 0 0 0 0 0 0 0 0 0 0 0 0 0 0 0 0 0 0 0 0 0 0 0 0 0 0 0 0 0
3 3 2 2 2 1 1 1 0 0 0 0 0 0 0 0 0 0 0 0 0 0 0 0 0 0 0 0 0 0 0 0 0 0 0 0 0 0 0 0 0 0 0
3 3 3 2 2 1 1 1 1 0 0 0 0 0 0 0 0 0 0 0 0 0 0 0 0 0 0 0 0 0 0 0 0 0 0 0 0 0 0 0 0 0 0
4 3 3 3 2 2 1 1 1 0 0 0 0 0 0 0 0 0 0 0 0 0 0 0 0 0 0 0 0 0 0 0 0 0 0 0 0 0 0 0 0 0 0
4 4 3 3 2 2 1 1 0 0 0 0 0 0 0 0 0 0 0 0 0 0 0 0 0 0 0 0 0 0 0 0 0 0 0 0 0 0 0 0 0 0 0
4 4 3 2 2 2 1 1 1 0 0 0 0 0 0 0 0 0 0 0 0 0 0 0 0 0 0 0 0 0 0 0 0 0 0 0 0 0 0 0 0 0 0
3 3 3 3 2 2 1 1 1 1 1 0 0 0 0 0 0 0 0 0 0 0 0 0 0 0 0 0 0 0 0 0 0 0 0 0 0 0 0 0 0 0 0
3 3 3 3 3 2 2 1 1 1 1 1 1 0 0 0 0 0 0 0 0 0 0 0 0 0 0 0 0 0 0 0 0 0 0 0 0 0 0 0 0 0 0
3 3 3 3 3 3 3 3 2 1 1 1 1 1 1 0 0 0 0 0 0 0 0 0 0 0 0 0 0 0 0 0 0 0 0 0 0 0 0 0 0 0 0
4 3 4 4 4 3 4 4 2 1 1 1 1 1 1 1 0 0 0 0 0 0 0 0 0 0 0 0 0 0 0 0 0 0 0 0 0 0 0 0 0 0 0
4 3 3 4 4 4 4 4 3 2 1 1 1 1 1 1 1 1 1 0 0 0 0 0 0 0 0 0 0 0 0 0 0 0 0 0 0 0 0 0 0 0 0
3 3 3 3 4 4 4 3 2 2 2 2 1 1 1 1 1 1 1 1 1 0 0 0 0 0 0 0 0 0 0 0 0 0 0 0 0 0 0 0 0 0 0
3 3 3 3 4 4 4 3 3 2 2 2 2 1 1 1 1 1 1 0 0 1 0 0 0 0 0 0 0 0 0 0 0 0 0 0 0 0 0 0 0 0 0
3 4 4 4 4 4 4 4 3 3 3 2 2 2 1 1 1 0 0 0 0 0 0 0 0 0 0 0 0 0 0 0 0 0 0 0 0 0 0 0 0 0 0
4 4 5 5 4 4 4 4 4 3 3 2 2 2 2 1 1 1 1 0 0 0 0 0 0 0 0 0 0 0 0 0 0 0 0 0 0 0 0 0 0 0 0
4 5 6 5 5 5 5 4 4 4 3 2 2 2 2 1 1 1 1 1 0 0 0 0 0 0 0 0 0 0 0 0 0 0 0 0 0 0 0 0 0 0 0
Wind_Speed
10 11 19 20 20 19 18 17 16 16 16 16 16 16 16 17 17 17 18 18 17 18 18 18 18 18 18 18 18 18 18 18 17 17 16 15 16 16 16 15 14 10 17
13 15 20 20 20 19 18 17 16 16 15 15 16 16 16 17 17 17 18 18 18 18 18 18 18 18 17 17 16 16 16 16 16 15 13 11 13 16 16 15 14 11 17
17 16 18 20 20 19 18 17 17 16 16 16 16 16 16 17 17 18 18 18 18 18 18 17 17 17 16 15 14 14 14 13 13 13 11 6 9 15 15 15 15 16 16
17 15 16 19 20 19 19 18 17 16 16 16 16 16 17 17 18 18 18 17 17 17 17 16 16 15 15 14 14 14 14 14 13 11 6 5 6 13 15 15 15 15 15
15 13 16 20 20 19 18 17 17 16 16 16 16 16 17 17 18 18 17 17 17 16 16 15 15 14 13 13 14 14 15 15 14 10 6 5 5 12 14 14 14 14 14
13 12 16 19 20 19 18 17 17 17 17 16 16 17 17 17 17 17 17 16 16 15 15 14 14 13 12 13 13 14 14 14 10 5 5 5 4 11 13 13 13 13 13
14 13 15 19 19 19 18 17 17 17 17 16 17 17 17 17 17 17 16 15 15 15 14 13 12 11 11 12 12 13 13 12 7 5 4 4 6 11 12 12 12 12 12
15 14 15 18 18 17 17 17 16 16 16 16 17 17 17 17 17 16 15 14 14 14 13 12 11 10 9 10 11 10 9 8 7 5 4 3 8 10 11 10 10 10 10
14 13 11 12 13 15 15 15 15 15 15 15 16 16 15 15 15 15 14 13 13 13 12 11 10 8 8 7 8 8 8 7 4 2 3 2 7 9 9 9 9 9 9
12 11 10 10 10 10 10 13 13 13 13 14 14 14 13 12 12 13 11 11 11 11 10 9 8 7 5 5 5 5 5 5 3 2 2 3 7 7 7 7 7 7 7
14 11 11 10 9 9 9 11 11 12 13 13 12 13 11 7 7 7 9 10 10 10 9 8 6 5 3 2 2 3 3 1 2 1 2 4 6 6 6 5 5 5 5
17 14 11 11 10 9 8 7 6 6 8 7 7 8 5 5 4 6 9 9 9 8 7 6 5 3 1 1 2 2 1 1 1 2 2 5 6 5 5 4 4 4 4
17 15 13 11 11 9 7 6 4 4 5 6 7 7 5 4 3 4 3 4 4 5 3 3 2 1 1 1 1 1 1 1 2 2 3 7 6 5 5 4 4 3 3
16 15 14 13 11 9 8 7 6 5 5 5 6 7 6 4 4 4 3 3 3 2 3 2 2 2 3 3 3 2 2 2 2 2 3 7 7 6 5 5 5 4 4
15 15 14 13 12 10 9 7 7 6 6 6 6 7 7 6 6 5 3 3 4 3 3 3 3 3 3 3 3 3 3 3 3 3 3 7 8 8 7 7 7 6 6
14 15 14 14 13 12 9 7 7 7 6 6 6 7 8 7 6 6 5 4 4 4 4 4 4 3 3 3 3 3 3 3 3 3 3 5 9 9 9 8 8 7 7
13 14 14 15 14 13 11 10 8 7 7 6 6 7 8 7 7 6 5 5 5 4 5 3 3 2 2 2 2 2 2 3 3 4 4 3 4 8 9 10 9 8 8
11 13 14 13 14 13 11 9 7 7 7 7 6 6 8 8 7 6 5 5 4 4 4 3 2 2 2 1 2 2 2 2 3 4 3 3 3 3 5 8 8 7 7
10 12 13 12 13 13 11 8 7 7 7 6 6 5 7 7 7 6 5 4 4 3 3 3 2 2 2 2 2 2 2 3 4 3 3 4 4 3 3 4 5 4 3
9 10 11 11 12 11 8 6 5 5 5 5 5 6 7 6 7 6 4 5 4 3 3 2 3 2 2 2 1 2 3 3 3 3 4 2 2 2 2 2 1 1 1
8 10 11 11 10 9 7 7 6 6 5 5 5 6 7 6 7 6 4 4 4 4 4 4 3 2 2 1 0 2 3 3 3 3 2 1 0 1 1 1 1 1 1
9 10 10 11 11 10 8 7 5 5 4 4 5 6 6 6 6 6 6 5 4 3 4 3 3 2 2 2 2 1 2 3 2 2 1 0 0 1 2 2 2 2 2
10 11 10 11 10 10 8 5 4 3 2 3 4 4 5 6 6 5 6 5 4 4 4 4 3 4 3 2 2 3 2 3 2 2 2 1 1 2 1 2 2 2 2
10 9 10 10 10 9 9 8 9 7 6 6 5 4 4 5 6 5 5 5 4 3 3 3 3 3 3 3 2 3 3 3 2 2 1 1 2 2 2 2 2 3 3
8 8 8 9 9 9 9 10 10 7 5 4 4 5 5 4 4 5 5 4 4 3 3 3 3 3 3 3 3 2 2 2 3 3 3 1 1 1 2 2 2 2 3
6 6 7 8 8 8 9 9 10 9 8 7 6 6 5 3 3 4 5 4 4 3 3 3 3 3 3 3 2 2 2 2 3 3 4 3 2 1 1 2 2 2 2
Wind_Direction
152 155 146 141 136 132 128 124 121 117 115 112 110 109 108 109 108 109 107 105 104 103 101 98 96 95 95 93 90 88 84 81 78 74 70 70 73 75 74 70 65 60 67
145 150 145 142 138 134 130 127 124 121 118 115 113 112 112 112 111 110 108 106 104 103 101 99 99 98 96 94 93 91 89 85 80 76 67 63 71 75 73 72 71 69 68
143 146 143 141 138 135 133 130 127 125 122 118 116 115 115 115 112 110 107 105 103 102 102 102 101 99 95 91 89 89 92 89 83 75 66 54 68 76 75 72 71 70 69
143 144 143 141 139 137 136 133 131 128 125 120 118 118 116 115 112 110 107 106 105 104 103 103 102 98 92 86 83 87 89 88 88 79 60 49 60 75 74 73 72 71 69
141 142 144 142 141 140 138 136 134 131 128 124 122 120 117 116 114 111 109 107 107 106 106 106 102 96 89 83 83 87 89 90 89 77 63 53 55 76 75 72 72 71 69
138 140 144 142 142 142 141 138 136 133 130 128 125 122 120 118 116 113 112 112 111 111 111 109 104 97 88 83 84 89 91 95 88 73 64 58 60 78 77 75 73 72 70
140 142 145 143 144 144 142 140 138 137 134 132 130 127 124 121 120 119 118 117 116 116 115 113 108 99 90 84 84 89 90 94 89 78 70 65 75 81 79 76 74 73 72
143 145 147 145 145 145 144 141 140 139 138 137 134 132 129 126 126 125 123 122 121 119 117 115 111 103 93 86 83 86 90 92 93 87 78 77 90 86 82 79 76 75 74
144 144 145 147 146 146 144 143 142 141 140 139 137 134 131 130 131 131 128 127 125 123 121 120 116 109 98 88 80 76 81 92 96 102 95 89 98 93 88 85 82 79 77
145 146 146 145 144 142 142 143 141 141 139 137 134 132 131 131 132 131 130 129 129 129 129 128 126 119 105 86 73 72 82 96 101 116 118 122 112 104 98 93 88 85 82
153 153 150 147 145 143 144 145 141 141 140 136 135 135 133 129 129 130 134 135 137 138 140 142 142 137 114 60 43 60 76 101 128 145 157 145 132 121 114 106 101 97 92
162 160 158 154 151 150 150 142 141 142 142 139 143 142 138 138 142 144 147 149 149 150 153 159 164 159 128 352 346 18 87 149 170 185 192 177 160 150 144 137 129 119 114
164 163 164 160 157 155 147 150 148 145 148 148 151 152 147 143 145 144 146 153 155 158 161 174 178 201 233 258 278 276 223 206 198 204 202 194 186 181 179 175 172 166 155
165 168 167 165 161 160 156 159 157 157 160 163 166 162 155 153 158 162 164 167 169 171 181 193 204 222 240 252 254 252 235 215 206 205 213 208 205 206 207 205 204 203 202
167 170 170 168 167 165 163 165 166 169 173 174 172 172 167 164 169 172 177 180 185 186 192 204 216 227 238 244 237 224 226 212 205 205 219 220 219 220 223 224 224 224 222
170 172 172 173 172 169 170 172 172 175 177 177 176 178 175 171 173 175 180 187 194 198 200 203 212 217 224 221 226 225 230 225 217 216 222 228 230 229 232 234 236 237 235
174 171 173 176 175 174 175 177 175 177 174 180 181 179 179 176 175 176 180 187 196 196 197 199 210 207 220 224 239 244 244 246 241 234 229 228 234 236 237 240 242 244 245
174 170 174 177 178 179 177 177 175 176 174 178 177 177 179 178 175 173 177 188 188 184 184 186 189 190 211 219 242 261 263 264 256 246 237 232 231 237 239 239 242 244 250
178 172 175 175 179 181 178 174 172 173 174 173 172 173 176 175 174 171 176 182 176 174 181 185 181 179 200 225 243 259 266 261 259 257 248 242 231 226 222 231 234 240 252
182 176 177 176 179 179 174 167 166 169 173 169 172 175 173 175 173 170 177 183 174 173 185 186 187 184 192 207 246 273 271 267 267 261 256 249 231 215 202 194 199 215 233
180 180 182 180 180 174 172 173 173 177 175 173 176 177 177 175 173 172 178 181 181 186 193 190 180 189 209 174 167 303 301 284 275 273 264 256 234 188 157 161 152 140 90
184 183 185 184 181 179 180 179 173 166 171 176 174 176 178 176 175 177 179 181 183 183 187 187 176 177 205 177 168 207 305 321 327 335 340 242 217 95 97 97 103 105 92
190 186 186 188 186 183 179 161 138 124 128 160 177 180 184 178 176 175 179 176 176 178 189 193 185 184 204 214 190 180 201 244 295 332 17 25 49 69 66 73 78 78 83
200 191 183 183 184 182 175 172 170 175 183 189 181 177 175 174 172 173 172 171 169 170 180 193 188 187 186 211 224 223 216 197 215 276 324 24 48 51 43 64 72 71 70
195 189 184 177 180 179 177 178 180 184 186 165 157 163 171 167 166 166 163 162 163 166 175 187 191 195 200 206 207 212 226 226 220 220 246 234 58 41 39 49 62 67 61
189 186 180 175 178 178 177 179 182 183 174 162 169 174 171 162 159 161 153 154 159 160 165 182 191 196 207 213 215 211 203 209 213 213 229 219 208 156 65 44 53 61 61